星链-2123 (STARLINK-2123 )

导读 | 豆包AI

STARLINK-2123是美国太空探索技术公司Starlink(星链)项目中的一颗卫星,由美国在2021年1月20日发射升空,属于星链星座组网卫星,旨在为全球提供高速互联网服务,尤其覆盖偏远地区,是星链低轨卫星互联网星座部署过程中的重要组成部分。

Basic Information
目录编号:
47401
目录名称:
STARLINK-2123
国际标识:
2021-005BE
轨道中心:
EARTH
卫星名称:
星链-2123
卫星全名:
星链-2123 (STARLINK-2123 )
卫星状态:
在轨 (已飞行1879 天)
发射日期:
2021-01-20 UTC
国别 :
美国 (US)
星等 :
--
Orbit Information
数据来源 国际轨道数据 AOE轨道数据
星历时间 2026-03-14T07:28:49+0800
13小时前
查看轨道信息
2026-03-09T23:00:00+0800
4天前
查看轨道信息
半长轴 6925.357km 6925.331km
偏心率 0.00011 0.0001211
轨道倾角 53.054° 53.054°
近地点辐角 77.403° 74.074°
升交点赤经 12.367° 31.910°
平近点角 282.709° 64.732°
近地点 546.458km 546.355km
远地点 547.982km 548.033km
周期 95.592分钟 95.592分钟
每日圈数 15.063974 15.064058
Detailed Information
固有亮度:
5
最大亮度:
2.5
卫星平台:
Starlink V1.0
覆盖范围:
全球
运营商:
太空探索技术公司
运营商所在国:
美国
制造商(研发单位):
太空探索技术公司
制造商所在国:
美国
使用方式:
暂无
Satellite Introduction
星链(Starlink)计划是由太空探索技术公司(SpaceX)提出的一个巨型低轨卫星互联网星座项目,计划在2019年至2024年间在太空搭建由约1.2万颗卫星组成的“星链”网络,其中1584颗将部署在地球上空550千米处的近地轨道,并从2020年开始工作。该卫星仍在工作。
2D Orbit Map
3D Orbit Map
Orbit Altitude Analysis Chart
Orbit Inclination Analysis Chart
Orbit Comprehensive Analysis Chart
View Comprehensive Chart